Regional Weather Roundup
Issued by NWS

Home | Current Version | Previous Version | Graphics & Text | Print | Product List | Glossary On
Versions: 1 2 3 4 5 6 7 8 9 10 11 12 13 14 15 16 17 18 19 20 21 22 23 24 25 26 27 28 29 30 31 32 33 34 35 36 37 38 39 40 41 42 43 44 45 46 47 48 49 50
000
ASUS43 KBIS 240920
RWRND

NORTH DAKOTA REGIONAL WEATHER ROUNDUP
NATIONAL WEATHER SERVICE BISMARCK ND
400 AM CDT THU JUL 24 2014

NOTE: "FAIR" INDICATES FEW OR NO CLOUDS BELOW 12,000 FEET WITH NO
SIGNIFICANT WEATHER AND/OR OBSTRUCTIONS TO VISIBILITY.


NDZ001>003-009>011-017-241000-
NORTHWEST NORTH DAKOTA

CITY           SKY/WX    TMP DP  RH WIND       PRES   REMARKS
WILLISTON      CLOUDY    71  56  58 SE7G18    29.87F
MINOT          MOCLDY    64  60  87 E12       29.99F
MINOT AFB      MOCLDY    63  63 100 E13       30.00F
$$

NDZ018>021-031>035-040>046-241000-
SOUTHWEST NORTH DAKOTA

CITY           SKY/WX    TMP DP  RH WIND       PRES   REMARKS
BISMARCK       CLEAR     65  57  75 SE12      30.02F
DICKINSON      CLEAR     63  55  75 SE16      29.91F
GARRISON         N/A     65  59  81 SE13      29.98F
HETTINGER ARPT PTCLDY    66  55  67 SE16G25   29.94F
$$

NDZ004>008-012>016-024-026-027-054-241000-
NORTHEAST NORTH DAKOTA

CITY           SKY/WX    TMP DP  RH WIND       PRES   REMARKS
GRAND FORKS    PTCLDY    60  57  89 E3        30.12F
GRND FRKS AFB  PTCLDY    59  59  99 SE2       30.13F
DEVILS LAKE    PTCLDY    64  55  72 SE15      30.08F
$$

NDZ022-023-025-028>030-036>039-047>053-241000-
SOUTHEAST NORTH DAKOTA

CITY           SKY/WX    TMP DP  RH WIND       PRES   REMARKS
FARGO          PTCLDY    62  58  86 E6        30.12F
JAMESTOWN      CLEAR     63  58  83 SE8       30.09F
$$



USA.gov is the U.S. government's official web portal to all federal, state and local government web resources and services.